Year,Month,Day,Hour,Minute,Value (Times are PST for temperature in C)
2015,08,22,00,00,12.90
2015,08,22,00,01,12.90
2015,08,22,00,02,12.90
2015,08,22,00,03,12.90
2015,08,22,00,04,12.90
2015,08,22,00,05,12.90
2015,08,22,00,06,12.90
2015,08,22,00,07,12.80
2015,08,22,00,08,12.80
2015,08,22,00,09,12.80
2015,08,22,00,10,12.80
2015,08,22,00,11,12.80
2015,08,22,00,12,12.80
2015,08,22,00,13,12.80
2015,08,22,00,14,12.80
2015,08,22,00,15,12.80
2015,08,22,00,16,12.80
2015,08,22,00,17,12.80
2015,08,22,00,18,12.80
2015,08,22,00,19,12.70
2015,08,22,00,20,12.70
2015,08,22,00,21,12.70
2015,08,22,00,22,12.70
2015,08,22,00,23,12.70
2015,08,22,00,24,12.70
2015,08,22,00,25,12.70
2015,08,22,00,26,12.70
2015,08,22,00,27,12.70
2015,08,22,00,28,12.70
2015,08,22,00,29,12.70
2015,08,22,00,30,12.70
2015,08,22,00,31,12.70
2015,08,22,00,32,12.70
2015,08,22,00,33,12.70
2015,08,22,00,34,12.70
2015,08,22,00,35,12.60
2015,08,22,00,36,12.60
2015,08,22,00,37,12.60
2015,08,22,00,38,12.60
2015,08,22,00,39,12.60
2015,08,22,00,40,12.50
2015,08,22,00,41,12.50
2015,08,22,00,42,12.50
2015,08,22,00,43,12.50
2015,08,22,00,44,12.50
2015,08,22,00,45,12.50
2015,08,22,00,46,12.50
2015,08,22,00,47,12.50
2015,08,22,00,48,12.50
2015,08,22,00,49,12.60
2015,08,22,00,50,12.60
2015,08,22,00,51,12.70
2015,08,22,00,52,12.70
2015,08,22,00,53,12.80
2015,08,22,00,54,12.80
2015,08,22,00,55,12.80
2015,08,22,00,56,12.80
2015,08,22,00,57,12.80
2015,08,22,00,58,12.80
2015,08,22,00,59,12.80
2015,08,22,01,00,12.80
2015,08,22,01,01,12.80
2015,08,22,01,02,12.80
2015,08,22,01,03,12.80
2015,08,22,01,04,12.80
2015,08,22,01,05,12.80
2015,08,22,01,06,12.70
2015,08,22,01,07,12.70
2015,08,22,01,08,12.70
2015,08,22,01,09,12.70
2015,08,22,01,10,12.70
2015,08,22,01,11,12.70
2015,08,22,01,12,12.70
2015,08,22,01,13,12.70
2015,08,22,01,14,12.80
2015,08,22,01,15,12.80
2015,08,22,01,16,12.80
2015,08,22,01,17,12.90
2015,08,22,01,18,12.90
2015,08,22,01,19,12.90
2015,08,22,01,20,13.00
2015,08,22,01,21,13.00
2015,08,22,01,22,13.00
2015,08,22,01,23,13.00
2015,08,22,01,24,13.10
2015,08,22,01,25,13.10
2015,08,22,01,26,13.00
2015,08,22,01,27,13.00
2015,08,22,01,28,13.00
2015,08,22,01,29,13.00
2015,08,22,01,30,12.90
2015,08,22,01,31,12.90
2015,08,22,01,32,12.90
2015,08,22,01,33,12.90
2015,08,22,01,34,12.90
2015,08,22,01,35,12.90
2015,08,22,01,36,12.90
2015,08,22,01,37,12.90
2015,08,22,01,38,12.90
2015,08,22,01,39,12.80
2015,08,22,01,40,12.80
2015,08,22,01,41,12.80
2015,08,22,01,42,12.80
2015,08,22,01,43,12.80
2015,08,22,01,44,12.80
2015,08,22,01,45,12.80
2015,08,22,01,46,12.80
2015,08,22,01,47,12.70
2015,08,22,01,48,12.70
2015,08,22,01,49,12.70
2015,08,22,01,50,12.70
2015,08,22,01,51,12.70
2015,08,22,01,52,12.70
2015,08,22,01,53,12.70
2015,08,22,01,54,12.70
2015,08,22,01,55,12.60
2015,08,22,01,56,12.60
2015,08,22,01,57,12.60
2015,08,22,01,58,12.60
2015,08,22,01,59,12.60
2015,08,22,02,00,12.60
2015,08,22,02,01,12.50
2015,08,22,02,02,12.50
2015,08,22,02,03,12.50
2015,08,22,02,04,12.40
2015,08,22,02,05,12.40
2015,08,22,02,06,12.40
2015,08,22,02,07,12.40
2015,08,22,02,08,12.40
2015,08,22,02,09,12.40
2015,08,22,02,10,12.40
2015,08,22,02,11,12.40
2015,08,22,02,12,12.40
2015,08,22,02,13,12.40
2015,08,22,02,14,12.40
2015,08,22,02,15,12.50
2015,08,22,02,16,12.50
2015,08,22,02,17,12.60
2015,08,22,02,18,12.70
2015,08,22,02,19,12.70
2015,08,22,02,20,12.80
2015,08,22,02,21,12.90
2015,08,22,02,22,12.90
2015,08,22,02,23,13.00
2015,08,22,02,24,13.10
2015,08,22,02,25,13.10
2015,08,22,02,26,13.20
2015,08,22,02,27,13.20
2015,08,22,02,28,13.30
2015,08,22,02,29,13.30
2015,08,22,02,30,13.30
2015,08,22,02,31,13.30
2015,08,22,02,32,13.40
2015,08,22,02,33,13.40
2015,08,22,02,34,13.40
2015,08,22,02,35,13.40
2015,08,22,02,36,13.40
2015,08,22,02,37,13.40
2015,08,22,02,38,13.40
2015,08,22,02,39,13.40
2015,08,22,02,40,13.40
2015,08,22,02,41,13.40
2015,08,22,02,42,13.40
2015,08,22,02,43,13.40
2015,08,22,02,44,13.40
2015,08,22,02,45,13.40
2015,08,22,02,46,13.40
2015,08,22,02,47,13.40
2015,08,22,02,48,13.40
2015,08,22,02,49,13.30
2015,08,22,02,50,13.30
2015,08,22,02,51,13.30
2015,08,22,02,52,13.30
2015,08,22,02,53,13.30
2015,08,22,02,54,13.30
2015,08,22,02,55,13.30
2015,08,22,02,56,13.30
2015,08,22,02,57,13.30
2015,08,22,02,58,13.30
2015,08,22,02,59,13.20
2015,08,22,03,00,13.20
2015,08,22,03,01,13.20
2015,08,22,03,02,13.20
2015,08,22,03,03,13.20
2015,08,22,03,04,13.20
2015,08,22,03,05,13.20
2015,08,22,03,06,13.20
2015,08,22,03,07,13.10
2015,08,22,03,08,13.10
2015,08,22,03,09,13.10
2015,08,22,03,10,13.10
2015,08,22,03,11,13.10
2015,08,22,03,12,13.10
2015,08,22,03,13,13.10
2015,08,22,03,14,13.00
2015,08,22,03,15,13.00
2015,08,22,03,16,13.00
2015,08,22,03,17,13.00
2015,08,22,03,18,12.90
2015,08,22,03,19,12.90
2015,08,22,03,20,12.90
2015,08,22,03,21,12.80
2015,08,22,03,22,12.80
2015,08,22,03,23,12.80
2015,08,22,03,24,12.80
2015,08,22,03,25,12.80
2015,08,22,03,26,12.70
2015,08,22,03,27,12.70
2015,08,22,03,28,12.70
2015,08,22,03,29,12.70
2015,08,22,03,30,12.70
2015,08,22,03,31,12.70
2015,08,22,03,32,12.70
2015,08,22,03,33,12.70
2015,08,22,03,34,12.70
2015,08,22,03,35,12.70
2015,08,22,03,36,12.60
2015,08,22,03,37,12.60
2015,08,22,03,38,12.60
2015,08,22,03,39,12.60
2015,08,22,03,40,12.60
2015,08,22,03,41,12.60
2015,08,22,03,42,12.50
2015,08,22,03,43,12.50
2015,08,22,03,44,12.50
2015,08,22,03,45,12.50
2015,08,22,03,46,12.50
2015,08,22,03,47,12.40
2015,08,22,03,48,12.40
2015,08,22,03,49,12.40
2015,08,22,03,50,12.40
2015,08,22,03,51,12.40
2015,08,22,03,52,12.40
2015,08,22,03,53,12.40
2015,08,22,03,54,12.40
2015,08,22,03,55,12.30
2015,08,22,03,56,12.30
2015,08,22,03,57,12.30
2015,08,22,03,58,12.30
2015,08,22,03,59,12.40
2015,08,22,04,00,12.40
2015,08,22,04,01,12.50
2015,08,22,04,02,12.50
2015,08,22,04,03,12.60
2015,08,22,04,04,12.60
2015,08,22,04,05,12.60
2015,08,22,04,06,12.70
2015,08,22,04,07,12.70
2015,08,22,04,08,12.70
2015,08,22,04,09,12.70
2015,08,22,04,10,12.70
2015,08,22,04,11,12.70
2015,08,22,04,12,12.70
2015,08,22,04,13,12.70
2015,08,22,04,14,12.70
2015,08,22,04,15,12.70
2015,08,22,04,16,12.70
2015,08,22,04,17,12.70
2015,08,22,04,18,12.70
2015,08,22,04,19,12.80
2015,08,22,04,20,12.80
2015,08,22,04,21,12.80
2015,08,22,04,22,12.80
2015,08,22,04,23,12.80
2015,08,22,04,24,12.80
2015,08,22,04,25,12.80
2015,08,22,04,26,12.80
2015,08,22,04,27,12.80
2015,08,22,04,28,12.70
2015,08,22,04,29,12.70
2015,08,22,04,30,12.70
2015,08,22,04,31,12.60
2015,08,22,04,32,12.50
2015,08,22,04,33,12.40
2015,08,22,04,34,12.20
2015,08,22,04,35,12.10
2015,08,22,04,36,12.00
2015,08,22,04,37,11.90
2015,08,22,04,38,11.80
2015,08,22,04,39,11.80
2015,08,22,04,40,11.70
2015,08,22,04,41,11.70
2015,08,22,04,42,11.70
2015,08,22,04,43,11.70
2015,08,22,04,44,11.70
2015,08,22,04,45,11.70
2015,08,22,04,46,11.70
2015,08,22,04,47,11.70
2015,08,22,04,48,11.70
2015,08,22,04,49,11.70
2015,08,22,04,50,11.70
2015,08,22,04,51,11.60
2015,08,22,04,52,11.60
2015,08,22,04,53,11.60
2015,08,22,04,54,11.60
2015,08,22,04,55,11.60
2015,08,22,04,56,11.60
2015,08,22,04,57,11.50
2015,08,22,04,58,11.50
2015,08,22,04,59,11.40
2015,08,22,05,00,11.40
2015,08,22,05,01,11.40
2015,08,22,05,02,11.40
2015,08,22,05,03,11.40
2015,08,22,05,04,11.40
2015,08,22,05,05,11.40
2015,08,22,05,06,11.40
2015,08,22,05,07,11.30
2015,08,22,05,08,11.30
2015,08,22,05,09,11.30
2015,08,22,05,10,11.30
2015,08,22,05,11,11.30
2015,08,22,05,12,11.20
2015,08,22,05,13,11.20
2015,08,22,05,14,11.20
2015,08,22,05,15,11.20
2015,08,22,05,16,11.20
2015,08,22,05,17,11.10
2015,08,22,05,18,11.10
2015,08,22,05,19,11.10
2015,08,22,05,20,11.10
2015,08,22,05,21,11.10
2015,08,22,05,22,11.10
2015,08,22,05,23,11.10
2015,08,22,05,24,11.10
2015,08,22,05,25,11.10
2015,08,22,05,26,11.10
2015,08,22,05,27,11.10
2015,08,22,05,28,11.10
2015,08,22,05,29,11.10
2015,08,22,05,30,11.10
2015,08,22,05,31,11.10
2015,08,22,05,32,11.10
2015,08,22,05,33,11.10
2015,08,22,05,34,11.10
2015,08,22,05,35,11.10
2015,08,22,05,36,11.20
2015,08,22,05,37,11.20
2015,08,22,05,38,11.20
2015,08,22,05,39,11.20
2015,08,22,05,40,11.20
2015,08,22,05,41,11.20
2015,08,22,05,42,11.20
2015,08,22,05,43,11.20
2015,08,22,05,44,11.20
2015,08,22,05,45,11.30
2015,08,22,05,46,11.30
2015,08,22,05,47,11.40
2015,08,22,05,48,11.40
2015,08,22,05,49,11.50
2015,08,22,05,50,11.60
2015,08,22,05,51,11.60
2015,08,22,05,52,11.70
2015,08,22,05,53,11.70
2015,08,22,05,54,11.70
2015,08,22,05,55,11.70
2015,08,22,05,56,11.70
2015,08,22,05,57,11.70
2015,08,22,05,58,11.70
2015,08,22,05,59,11.70
2015,08,22,06,00,11.70
2015,08,22,06,01,11.70
2015,08,22,06,02,11.70
2015,08,22,06,03,11.70
2015,08,22,06,04,11.70
2015,08,22,06,05,11.70
2015,08,22,06,06,11.60
2015,08,22,06,07,11.60
2015,08,22,06,08,11.70
2015,08,22,06,09,11.70
2015,08,22,06,10,11.70
2015,08,22,06,11,11.70
2015,08,22,06,12,11.70
2015,08,22,06,13,11.70
2015,08,22,06,14,11.70
2015,08,22,06,15,11.70
2015,08,22,06,16,11.70
2015,08,22,06,17,11.70
2015,08,22,06,18,11.70
2015,08,22,06,19,11.70
2015,08,22,06,20,11.70
2015,08,22,06,21,11.70
2015,08,22,06,22,11.70
2015,08,22,06,23,11.70
2015,08,22,06,24,11.70
2015,08,22,06,25,11.70
2015,08,22,06,26,11.60
2015,08,22,06,27,11.60
2015,08,22,06,28,11.60
2015,08,22,06,29,11.60
2015,08,22,06,30,11.60
2015,08,22,06,31,11.60
2015,08,22,06,32,11.60
2015,08,22,06,33,11.60
2015,08,22,06,34,11.60
2015,08,22,06,35,11.60
2015,08,22,06,36,11.60
2015,08,22,06,37,11.60
2015,08,22,06,38,11.50
2015,08,22,06,39,11.50
2015,08,22,06,40,11.50
2015,08,22,06,41,11.50
2015,08,22,06,42,11.50
2015,08,22,06,43,11.50
2015,08,22,06,44,11.50
2015,08,22,06,45,11.50
2015,08,22,06,46,11.50
2015,08,22,06,47,11.50
2015,08,22,06,48,11.60
2015,08,22,06,49,11.60
2015,08,22,06,50,11.70
2015,08,22,06,51,11.70
2015,08,22,06,52,11.70
2015,08,22,06,53,11.70
2015,08,22,06,54,11.70
2015,08,22,06,55,11.80
2015,08,22,06,56,11.80
2015,08,22,06,57,11.80
2015,08,22,06,58,11.80
2015,08,22,06,59,11.80
2015,08,22,07,00,11.80
2015,08,22,07,01,11.80
2015,08,22,07,02,11.80
2015,08,22,07,03,11.80
2015,08,22,07,04,11.80
2015,08,22,07,05,11.80
2015,08,22,07,06,11.80
2015,08,22,07,07,11.80
2015,08,22,07,08,11.90
2015,08,22,07,09,11.90
2015,08,22,07,10,11.90
2015,08,22,07,11,11.90
2015,08,22,07,12,11.90
2015,08,22,07,13,11.90
2015,08,22,07,14,12.00
2015,08,22,07,15,12.10
2015,08,22,07,16,12.10
2015,08,22,07,17,12.20
2015,08,22,07,18,12.30
2015,08,22,07,19,12.30
2015,08,22,07,20,12.50
2015,08,22,07,21,12.60
2015,08,22,07,22,12.80
2015,08,22,07,23,13.00
2015,08,22,07,24,13.20
2015,08,22,07,25,13.40
2015,08,22,07,26,13.60
2015,08,22,07,27,13.70
2015,08,22,07,28,13.90
2015,08,22,07,29,14.10
2015,08,22,07,30,14.20
2015,08,22,07,31,14.30
2015,08,22,07,32,14.50
2015,08,22,07,33,14.60
2015,08,22,07,34,14.80
2015,08,22,07,35,14.90
2015,08,22,07,36,15.00
2015,08,22,07,37,15.20
2015,08,22,07,38,15.30
2015,08,22,07,39,15.40
2015,08,22,07,40,15.50
2015,08,22,07,41,15.70
2015,08,22,07,42,15.80
2015,08,22,07,43,15.90
2015,08,22,07,44,16.00
2015,08,22,07,45,16.10
2015,08,22,07,46,16.20
2015,08,22,07,47,16.30
2015,08,22,07,48,16.30
2015,08,22,07,49,16.40
2015,08,22,07,50,16.50
2015,08,22,07,51,16.50
2015,08,22,07,52,16.60
2015,08,22,07,53,16.70
2015,08,22,07,54,16.80
2015,08,22,07,55,16.80
2015,08,22,07,56,16.90
2015,08,22,07,57,17.00
2015,08,22,07,58,17.00
2015,08,22,07,59,17.10
2015,08,22,08,00,17.10
2015,08,22,08,01,17.10
2015,08,22,08,02,17.20
2015,08,22,08,03,17.20
2015,08,22,08,04,17.30
2015,08,22,08,05,17.30
2015,08,22,08,06,17.30
2015,08,22,08,07,17.30
2015,08,22,08,08,17.30
2015,08,22,08,09,17.30
2015,08,22,08,10,17.30
2015,08,22,08,11,17.30
2015,08,22,08,12,17.30
2015,08,22,08,13,17.30
2015,08,22,08,14,17.30
2015,08,22,08,15,17.30
2015,08,22,08,16,17.30
2015,08,22,08,17,17.30
2015,08,22,08,18,17.30
2015,08,22,08,19,17.30
2015,08,22,08,20,17.30
2015,08,22,08,21,17.30
2015,08,22,08,22,17.30
2015,08,22,08,23,17.30
2015,08,22,08,24,17.40
2015,08,22,08,25,17.40
2015,08,22,08,26,17.40
2015,08,22,08,27,17.40
2015,08,22,08,28,17.40
2015,08,22,08,29,17.40
2015,08,22,08,30,17.40
2015,08,22,08,31,17.40
2015,08,22,08,32,17.40
2015,08,22,08,33,17.40
2015,08,22,08,34,17.40
2015,08,22,08,35,17.40
2015,08,22,08,36,17.40
2015,08,22,08,37,17.40
2015,08,22,08,38,17.50
2015,08,22,08,39,17.40
2015,08,22,08,40,17.40
2015,08,22,08,41,17.40
2015,08,22,08,42,17.40
2015,08,22,08,43,17.40
2015,08,22,08,44,17.40
2015,08,22,08,45,17.50
2015,08,22,08,46,17.50
2015,08,22,08,47,17.50
2015,08,22,08,48,17.50
2015,08,22,08,49,17.60
2015,08,22,08,50,17.60
2015,08,22,08,51,17.50
2015,08,22,08,52,17.40
2015,08,22,08,53,17.40
2015,08,22,08,54,17.30
2015,08,22,08,55,17.40
2015,08,22,08,56,17.40
2015,08,22,08,57,17.40
2015,08,22,08,58,17.40
2015,08,22,08,59,17.40
2015,08,22,09,00,17.50
2015,08,22,09,01,17.50
2015,08,22,09,02,17.50
2015,08,22,09,03,17.60
2015,08,22,09,04,17.60
2015,08,22,09,05,17.70
2015,08,22,09,06,17.70
2015,08,22,09,07,17.80
2015,08,22,09,08,17.90
2015,08,22,09,09,17.90
2015,08,22,09,10,17.90
2015,08,22,09,11,17.90
2015,08,22,09,12,17.90
2015,08,22,09,13,17.90
2015,08,22,09,14,17.90
2015,08,22,09,15,18.00
2015,08,22,09,16,18.00
2015,08,22,09,17,18.00
2015,08,22,09,18,18.00
2015,08,22,09,19,17.90
2015,08,22,09,20,17.90
2015,08,22,09,21,17.90
2015,08,22,09,22,17.80
2015,08,22,09,23,17.80
2015,08,22,09,24,17.80
2015,08,22,09,25,17.90
2015,08,22,09,26,17.90
2015,08,22,09,27,18.00
2015,08,22,09,28,18.00
2015,08,22,09,29,18.00
2015,08,22,09,30,17.90
2015,08,22,09,31,17.90
2015,08,22,09,32,17.90
2015,08,22,09,33,17.80
2015,08,22,09,34,17.80
2015,08,22,09,35,17.80
2015,08,22,09,36,17.70
2015,08,22,09,37,17.70
2015,08,22,09,38,17.70
2015,08,22,09,39,17.70
2015,08,22,09,40,17.70
2015,08,22,09,41,17.80
2015,08,22,09,42,17.70
2015,08,22,09,43,17.70
2015,08,22,09,44,17.50
2015,08,22,09,45,17.50
2015,08,22,09,46,17.40
2015,08,22,09,47,17.50
2015,08,22,09,48,17.50
2015,08,22,09,49,17.60
2015,08,22,09,50,17.70
2015,08,22,09,51,17.60
2015,08,22,09,52,17.60
2015,08,22,09,53,17.60
2015,08,22,09,54,17.60
2015,08,22,09,55,17.70
2015,08,22,09,56,17.80
2015,08,22,09,57,17.80
2015,08,22,09,58,17.90
2015,08,22,09,59,18.00
2015,08,22,10,00,18.10
2015,08,22,10,01,18.10
2015,08,22,10,02,18.10
2015,08,22,10,03,18.10
2015,08,22,10,04,18.10
2015,08,22,10,05,18.10
2015,08,22,10,06,18.00
2015,08,22,10,07,17.90
2015,08,22,10,08,18.00
2015,08,22,10,09,18.00
2015,08,22,10,10,18.10
2015,08,22,10,11,18.10
2015,08,22,10,12,18.10
2015,08,22,10,13,18.20
2015,08,22,10,14,18.20
2015,08,22,10,15,18.20
2015,08,22,10,16,18.20
2015,08,22,10,17,18.10
2015,08,22,10,18,18.10
2015,08,22,10,19,18.10
2015,08,22,10,20,18.10
2015,08,22,10,21,18.10
2015,08,22,10,22,18.10
2015,08,22,10,23,18.10
2015,08,22,10,24,18.00
2015,08,22,10,25,18.00
2015,08,22,10,26,17.90
2015,08,22,10,27,17.90
2015,08,22,10,28,17.90
2015,08,22,10,29,17.90
2015,08,22,10,30,18.00
2015,08,22,10,31,18.00
2015,08,22,10,32,18.10
2015,08,22,10,33,18.20
2015,08,22,10,34,18.20
2015,08,22,10,35,18.20
2015,08,22,10,36,18.20
2015,08,22,10,37,18.20
2015,08,22,10,38,18.30
2015,08,22,10,39,18.30
2015,08,22,10,40,18.50
2015,08,22,10,41,18.60
2015,08,22,10,42,18.60
2015,08,22,10,43,18.70
2015,08,22,10,44,18.80
2015,08,22,10,45,18.90
2015,08,22,10,46,18.90
2015,08,22,10,47,18.80
2015,08,22,10,48,18.80
2015,08,22,10,49,18.80
2015,08,22,10,50,18.80
2015,08,22,10,51,18.80
2015,08,22,10,52,18.70
2015,08,22,10,53,18.60
2015,08,22,10,54,18.40
2015,08,22,10,55,18.40
2015,08,22,10,56,18.40
2015,08,22,10,57,18.40
2015,08,22,10,58,18.40
2015,08,22,10,59,18.40
2015,08,22,11,00,18.40
2015,08,22,11,01,18.40
2015,08,22,11,02,18.40
2015,08,22,11,03,18.40
2015,08,22,11,04,18.40
2015,08,22,11,05,18.40
2015,08,22,11,06,18.50
2015,08,22,11,07,18.50
2015,08,22,11,08,18.60
2015,08,22,11,09,18.60
2015,08,22,11,10,18.60
2015,08,22,11,11,18.60
2015,08,22,11,12,18.60
2015,08,22,11,13,18.60
2015,08,22,11,14,18.60
2015,08,22,11,15,18.60
2015,08,22,11,16,18.60
2015,08,22,11,17,18.70
2015,08,22,11,18,18.80
2015,08,22,11,19,19.00
2015,08,22,11,20,19.10
2015,08,22,11,21,19.20
2015,08,22,11,22,19.30
2015,08,22,11,23,19.40
2015,08,22,11,24,19.50
2015,08,22,11,25,19.60
2015,08,22,11,26,19.60
2015,08,22,11,27,19.50
2015,08,22,11,28,19.40
2015,08,22,11,29,19.40
2015,08,22,11,30,19.40
2015,08,22,11,31,19.30
2015,08,22,11,32,19.30
2015,08,22,11,33,19.30
2015,08,22,11,34,19.40
2015,08,22,11,35,19.40
2015,08,22,11,36,19.50
2015,08,22,11,37,19.60
2015,08,22,11,38,19.70
2015,08,22,11,39,19.80
2015,08,22,11,40,19.80
2015,08,22,11,41,19.80
2015,08,22,11,42,19.80
2015,08,22,11,43,19.90
2015,08,22,11,44,19.90
2015,08,22,11,45,19.90
2015,08,22,11,46,19.90
2015,08,22,11,47,19.90
2015,08,22,11,48,19.80
2015,08,22,11,49,19.70
2015,08,22,11,50,19.60
2015,08,22,11,51,19.50
2015,08,22,11,52,19.50
2015,08,22,11,53,19.50
2015,08,22,11,54,19.60
2015,08,22,11,55,19.70
2015,08,22,11,56,19.70
2015,08,22,11,57,19.80
2015,08,22,11,58,19.90
2015,08,22,11,59,20.00
2015,08,22,12,00,20.10
2015,08,22,12,01,20.10
2015,08,22,12,02,20.20
2015,08,22,12,03,20.30
2015,08,22,12,04,20.30
2015,08,22,12,05,20.40
2015,08,22,12,06,20.50
2015,08,22,12,07,20.60
2015,08,22,12,08,20.70
2015,08,22,12,09,20.80
2015,08,22,12,10,20.80
2015,08,22,12,11,20.90
2015,08,22,12,12,21.00
2015,08,22,12,13,21.00
2015,08,22,12,14,21.20
2015,08,22,12,15,21.20
2015,08,22,12,16,21.30
2015,08,22,12,17,21.30
2015,08,22,12,18,21.40
2015,08,22,12,19,21.40
2015,08,22,12,20,21.50
2015,08,22,12,21,21.60
2015,08,22,12,22,21.60
2015,08,22,12,23,21.60
2015,08,22,12,24,21.60
2015,08,22,12,25,21.50
2015,08,22,12,26,21.30
2015,08,22,12,27,21.30
2015,08,22,12,28,21.30
2015,08,22,12,29,21.30
2015,08,22,12,30,21.30
2015,08,22,12,31,21.30
2015,08,22,12,32,21.30
2015,08,22,12,33,21.40
2015,08,22,12,34,21.50
2015,08,22,12,35,21.50
2015,08,22,12,36,21.60
2015,08,22,12,37,21.60
2015,08,22,12,38,21.60
2015,08,22,12,39,21.70
2015,08,22,12,40,21.70
2015,08,22,12,41,21.60
2015,08,22,12,42,21.60
2015,08,22,12,43,21.60
2015,08,22,12,44,21.60
2015,08,22,12,45,21.70
2015,08,22,12,46,21.60
2015,08,22,12,47,21.50
2015,08,22,12,48,21.40
2015,08,22,12,49,21.30
2015,08,22,12,50,21.20
2015,08,22,12,51,21.20
2015,08,22,12,52,21.20
2015,08,22,12,53,21.20
2015,08,22,12,54,21.20
2015,08,22,12,55,21.10
2015,08,22,12,56,21.00
2015,08,22,12,57,20.90
2015,08,22,12,58,20.90
2015,08,22,12,59,20.90
2015,08,22,13,00,21.00
2015,08,22,13,01,21.10
2015,08,22,13,02,21.20
2015,08,22,13,03,21.40
2015,08,22,13,04,21.50
2015,08,22,13,05,21.50
2015,08,22,13,06,21.40
2015,08,22,13,07,21.40
2015,08,22,13,08,21.50
2015,08,22,13,09,21.40
2015,08,22,13,10,21.30
2015,08,22,13,11,21.30
2015,08,22,13,12,21.20
2015,08,22,13,13,21.20
2015,08,22,13,14,21.10
2015,08,22,13,15,21.10
2015,08,22,13,16,21.10
2015,08,22,13,17,21.10
2015,08,22,13,18,21.00
2015,08,22,13,19,21.00
2015,08,22,13,20,21.00
2015,08,22,13,21,21.10
2015,08,22,13,22,21.10
2015,08,22,13,23,21.10
2015,08,22,13,24,21.20
2015,08,22,13,25,21.30
2015,08,22,13,26,21.50
2015,08,22,13,27,21.60
2015,08,22,13,28,21.60
2015,08,22,13,29,21.70
2015,08,22,13,30,21.70
2015,08,22,13,31,21.80
2015,08,22,13,32,21.80
2015,08,22,13,33,21.80
2015,08,22,13,34,21.70
2015,08,22,13,35,21.60
2015,08,22,13,36,21.60
2015,08,22,13,37,21.60
2015,08,22,13,38,21.60
2015,08,22,13,39,21.60
2015,08,22,13,40,21.60
2015,08,22,13,41,21.70
2015,08,22,13,42,21.70
2015,08,22,13,43,21.80
2015,08,22,13,44,21.90
2015,08,22,13,45,22.00
2015,08,22,13,46,22.00
2015,08,22,13,47,21.90
2015,08,22,13,48,21.90
2015,08,22,13,49,22.00
2015,08,22,13,50,21.90
2015,08,22,13,51,21.90
2015,08,22,13,52,21.80
2015,08,22,13,53,21.70
2015,08,22,13,54,21.60
2015,08,22,13,55,21.50
2015,08,22,13,56,21.40
2015,08,22,13,57,21.40
2015,08,22,13,58,21.40
2015,08,22,13,59,21.40
2015,08,22,14,00,21.40
2015,08,22,14,01,21.50
2015,08,22,14,02,21.60
2015,08,22,14,03,21.70
2015,08,22,14,04,21.80
2015,08,22,14,05,21.80
2015,08,22,14,06,21.80
2015,08,22,14,07,21.70
2015,08,22,14,08,21.60
2015,08,22,14,09,21.60
2015,08,22,14,10,21.60
2015,08,22,14,11,21.70
2015,08,22,14,12,21.80
2015,08,22,14,13,21.90
2015,08,22,14,14,21.90
2015,08,22,14,15,21.90
2015,08,22,14,16,21.90
2015,08,22,14,17,21.90
2015,08,22,14,18,21.90
2015,08,22,14,19,21.90
2015,08,22,14,20,21.90
2015,08,22,14,21,21.90
2015,08,22,14,22,21.90
2015,08,22,14,23,21.90
2015,08,22,14,24,21.90
2015,08,22,14,25,22.00
2015,08,22,14,26,22.00
2015,08,22,14,27,22.00
2015,08,22,14,28,21.90
2015,08,22,14,29,21.90
2015,08,22,14,30,21.90
2015,08,22,14,31,21.90
2015,08,22,14,32,21.80
2015,08,22,14,33,21.80
2015,08,22,14,34,21.80
2015,08,22,14,35,21.80
2015,08,22,14,36,21.70
2015,08,22,14,37,21.70
2015,08,22,14,38,21.80
2015,08,22,14,39,21.80
2015,08,22,14,40,21.90
2015,08,22,14,41,22.00
2015,08,22,14,42,22.00
2015,08,22,14,43,22.00
2015,08,22,14,44,22.10
2015,08,22,14,45,22.20
2015,08,22,14,46,22.30
2015,08,22,14,47,22.30
2015,08,22,14,48,22.30
2015,08,22,14,49,22.20
2015,08,22,14,50,22.20
2015,08,22,14,51,22.30
2015,08,22,14,52,22.40
2015,08,22,14,53,22.50
2015,08,22,14,54,22.60
2015,08,22,14,55,22.60
2015,08,22,14,56,22.60
2015,08,22,14,57,22.60
2015,08,22,14,58,22.60
2015,08,22,14,59,22.60
2015,08,22,15,00,22.50
2015,08,22,15,01,22.40
2015,08,22,15,02,22.40
2015,08,22,15,03,22.40
2015,08,22,15,04,22.50
2015,08,22,15,05,22.50
2015,08,22,15,06,22.60
2015,08,22,15,07,22.70
2015,08,22,15,08,22.70
2015,08,22,15,09,22.70
2015,08,22,15,10,22.70
2015,08,22,15,11,22.70
2015,08,22,15,12,22.70
2015,08,22,15,13,22.70
2015,08,22,15,14,22.80
2015,08,22,15,15,22.80
2015,08,22,15,16,22.90
2015,08,22,15,17,23.10
2015,08,22,15,18,23.20
2015,08,22,15,19,23.30
2015,08,22,15,20,23.30
2015,08,22,15,21,23.30
2015,08,22,15,22,23.20
2015,08,22,15,23,23.20
2015,08,22,15,24,23.20
2015,08,22,15,25,23.20
2015,08,22,15,26,23.10
2015,08,22,15,27,23.10
2015,08,22,15,28,23.10
2015,08,22,15,29,23.10
2015,08,22,15,30,23.20
2015,08,22,15,31,23.30
2015,08,22,15,32,23.30
2015,08,22,15,33,23.40
2015,08,22,15,34,23.40
2015,08,22,15,35,23.40
2015,08,22,15,36,23.40
2015,08,22,15,37,23.30
2015,08,22,15,38,23.30
2015,08,22,15,39,23.20
2015,08,22,15,40,23.10
2015,08,22,15,41,23.00
2015,08,22,15,42,22.90
2015,08,22,15,43,22.90
2015,08,22,15,44,23.00
2015,08,22,15,45,23.00
2015,08,22,15,46,23.00
2015,08,22,15,47,22.90
2015,08,22,15,48,22.90
2015,08,22,15,49,22.90
2015,08,22,15,50,22.90
2015,08,22,15,51,22.90
2015,08,22,15,52,22.90
2015,08,22,15,53,23.00
2015,08,22,15,54,23.00
2015,08,22,15,55,23.10
2015,08,22,15,56,23.20
2015,08,22,15,57,23.20
2015,08,22,15,58,23.20
2015,08,22,15,59,23.10
2015,08,22,16,00,23.10
2015,08,22,16,01,23.10
2015,08,22,16,02,23.00
2015,08,22,16,03,23.00
2015,08,22,16,04,22.90
2015,08,22,16,05,23.00
2015,08,22,16,06,23.00
2015,08,22,16,07,23.10
2015,08,22,16,08,23.20
2015,08,22,16,09,23.30
2015,08,22,16,10,23.40
2015,08,22,16,11,23.50
2015,08,22,16,12,23.60
2015,08,22,16,13,23.60
2015,08,22,16,14,23.70
2015,08,22,16,15,23.80
2015,08,22,16,16,23.90
2015,08,22,16,17,24.00
2015,08,22,16,18,24.00
2015,08,22,16,19,24.00
2015,08,22,16,20,24.00
2015,08,22,16,21,23.80
2015,08,22,16,22,23.70
2015,08,22,16,23,23.60
2015,08,22,16,24,23.60
2015,08,22,16,25,23.60
2015,08,22,16,26,23.50
2015,08,22,16,27,23.40
2015,08,22,16,28,23.30
2015,08,22,16,29,23.30
2015,08,22,16,30,23.30
2015,08,22,16,31,23.30
2015,08,22,16,32,23.40
2015,08,22,16,33,23.40
2015,08,22,16,34,23.40
2015,08,22,16,35,23.40
2015,08,22,16,36,23.40
2015,08,22,16,37,23.50
2015,08,22,16,38,23.50
2015,08,22,16,39,23.40
2015,08,22,16,40,23.40
2015,08,22,16,41,23.40
2015,08,22,16,42,23.40
2015,08,22,16,43,23.50
2015,08,22,16,44,23.60
2015,08,22,16,45,23.70
2015,08,22,16,46,23.90
2015,08,22,16,47,24.00
2015,08,22,16,48,24.00
2015,08,22,16,49,24.10
2015,08,22,16,50,24.10
2015,08,22,16,51,24.10
2015,08,22,16,52,24.20
2015,08,22,16,53,24.20
2015,08,22,16,54,24.10
2015,08,22,16,55,24.10
2015,08,22,16,56,24.20
2015,08,22,16,57,24.20
2015,08,22,16,58,24.20
2015,08,22,16,59,24.30
2015,08,22,17,00,24.30
2015,08,22,17,01,24.30
2015,08,22,17,02,24.30
2015,08,22,17,03,24.30
2015,08,22,17,04,24.30
2015,08,22,17,05,24.20
2015,08,22,17,06,24.20
2015,08,22,17,07,24.10
2015,08,22,17,08,24.10
2015,08,22,17,09,24.10
2015,08,22,17,10,24.20
2015,08,22,17,11,24.30
2015,08,22,17,12,24.30
2015,08,22,17,13,24.40
2015,08,22,17,14,24.50
2015,08,22,17,15,24.60
2015,08,22,17,16,24.70
2015,08,22,17,17,24.80
2015,08,22,17,18,24.80
2015,08,22,17,19,24.80